Regional Weather Roundup
Issued by NWS

Home | Current Version | Previous Version | Text Only | Print | Product List | Glossary On
Versions: 1 2 3 4 5 6 7 8 9 10 11 12 13 14 15 16 17 18 19 20 21 22 23 24 25 26 27 28 29 30 31 32 33 34 35 36 37 38 39 40 41 42 43 44 45 46 47 48 49 50
408
ASUS46 KSTO 301515
RWRCA

NORTHERN AND CENTRAL CA REGIONAL WEATHER ROUNDUP
NATIONAL WEATHER SERVICE SACRAMENTO CA
800 AM PDT THU MAR 30 2017

NOTE: FAIR INDICATES FEW OR NO CLOUDS BELOW 12,000 FEET WITH NO
SIGNIFICANT WEATHER AND/OR OBSTRUCTIONS TO VISIBILITY.

CAZ001-003-301600-
NORTHWEST AREA

CITY           SKY/WX    TMP DP  RH WIND       PRES   REMARKS
CRESCENT CITY  CLOUDY    49  44  83 N16G23    30.25R
UKIAH          MOSUNNY   49  40  71 NW8       30.17R
$$

CAZ006-505>513-301600-
BAY AREA

CITY           SKY/WX    TMP DP  RH WIND       PRES   REMARKS
SANTA ROSA     MOSUNNY   51  40  65 NW12      30.12R
SAN RAFAEL     N/A       50  MM  MM MISG
NAPA           SUNNY     53  43  68 W13       30.08R
CONCORD        SUNNY     54  42  64 W16G26    30.09R
OAKLAND CITY   N/A      MM  MM  MM MISG
OAKLAND        MOSUNNY   55  47  74 W18       30.12R
SAN FRAN CITY  N/A       51  MM  74 MISG
SAN FRAN ARPT  MOSUNNY   52  45  77 W23G37    30.11S
LIVERMORE      MOSUNNY   52  45  77 W12       30.08S
HAYWARD        SUNNY     55  42  61 NW14      30.12R
REDWOOD CITY   N/A       MM  MM  MM MISG
MOFFETT ARPT   SUNNY     53  43  68 NW13G22   30.13R
SAN JOSE ARPT  MOSUNNY   53  43  68 W14G26    30.12R
$$
CAZ034-037-514>518-301600-
CENTRAL COAST

CITY           SKY/WX    TMP DP  RH WIND       PRES   REMARKS
WATSONVILLE    SUNNY     53  51  93 N3        30.10S
SALINAS        PTSUNNY   55  53  93 W9        30.10R
MONTEREY       PTSUNNY   53  47  79 W15G26    30.14R
SAN LUIS OBISP SUNNY     53  50  89 CALM      30.04S FOG
SANTA MARIA    PTSUNNY   51  51 100 NW3       30.05S FOG
$$
CAZ015-016-301600-
NORTHERN SACRAMENTO VALLEY

CITY           SKY/WX    TMP DP  RH WIND       PRES   REMARKS
REDDING        SUNNY     53  31  42 NW8G18    30.03R
RED BLUFF      SUNNY     53  33  46 NW16G25   30.04R
OROVILLE       SUNNY     53  36  52 NW12G20   30.02R
$$
CAZ016>018-301600-
SOUTHERN SACRAMENTO VALLEY

CITY           SKY/WX    TMP DP  RH WIND       PRES   REMARKS
AUBURN         MOSUNNY   48  46  93 CALM      30.00R
BEALE AFB      SUNNY     54  42  62 NW9       30.00R
LINCOLN        FAIR      52  43  71 W5        30.00R
MARYSVILLE     SUNNY     55  40  56 NW12      30.02R
SAC INTL ARPT  MOSUNNY   54  42  64 W14       30.01R
MATHER AIRPORT MOSUNNY   55  41  58 W13       30.01R
DOWNTOWN SAC   N/A       57  MM  MM MISG
SAC EXEC ARPT  SUNNY     56  40  55 W10       30.02R
VACAVILLE      SUNNY     56  37  49 NW15G24   30.05R
TRAVIS AFB     SUNNY     52  44  72 SW16      30.03R
$$
CAZ019>021-301600-
SAN JOAQUIN VALLEY

CITY           SKY/WX    TMP DP  RH WIND       PRES   REMARKS
STOCKTON       SUNNY     56  50  80 W18       30.02F
MODESTO        MOSUNNY   58  51  78 W18G28    30.03F
MERCED         CLOUDY    55  52  89 W7        30.04R
LEMOORE        PTSUNNY   54  46  74 NW13      30.01S
FRESNO         CLOUDY    57  52  83 NW13      30.01S
HANFORD        CLOUDY    56  50  80 N5        30.01R
PORTERVILLE    CLOUDY    52  49  89 CALM      30.00F
BAKERSFIELD    PTSUNNY   57  47  69 CALM      30.00F
$$
CAZ011-012-071-301600-
NORTHERN MOUNTAINS

CITY           SKY/WX    TMP DP  RH WIND       PRES   REMARKS
YREKA          PTSUNNY   39  32  76 N10       30.11R WCI  32
MOUNT SHASTA   CLOUDY    37  29  72 VRB7G21   30.03R WCI  32
ALTURAS        CLOUDY    34  29  82 NW12      29.95R WCI  25
$$
CAZ011-012-071-301600-
SIERRA NEVADA MTNS

CITY           SKY/WX    TMP DP  RH WIND       PRES   REMARKS
BLUE CANYON    CLOUDY    31  31 100 VRB7      29.94R WCI  24
TRUCKEE        LGT SNOW  34  30  86 W16G31    29.88R VSB 1   WCI  23
TAHOE VLY ARPT PTSUNNY   37  24  59 S15G25    29.85R WCI  28
MAMMOTH LAKES  LGT RAIN  40  35  82 NW10G21   29.92R WCI  33
$$




USA.gov is the U.S. government's official web portal to all federal, state and local government web resources and services.